TimeCDT,TemperatureF,Dew PointF,Humidity,Sea Level PressureIn,VisibilityMPH,Wind Direction,Wind SpeedMPH,Gust SpeedMPH,PrecipitationIn,Events,Conditions,WindDirDegrees,DateUTC
12:55 AM,47.7,34.0,59,30.02,10.0,Calm,Calm,-,N/A,,Mostly Cloudy,0,2011-10-17 05:55:00
1:55 AM,45.5,33.8,64,30.02,10.0,East,3.5,-,N/A,,Mostly Cloudy,90,2011-10-17 06:55:00
2:55 AM,44.8,34.2,66,30.02,10.0,Calm,Calm,-,N/A,,Mostly Cloudy,0,2011-10-17 07:55:00
3:55 AM,42.6,34.7,74,30.01,10.0,Calm,Calm,-,N/A,,Mostly Cloudy,0,2011-10-17 08:55:00
4:55 AM,43.9,35.8,73,30.01,10.0,Calm,Calm,-,N/A,,Mostly Cloudy,0,2011-10-17 09:55:00
5:55 AM,40.3,35.2,82,30.02,10.0,Calm,Calm,-,N/A,,Mostly Cloudy,0,2011-10-17 10:55:00
6:55 AM,41.5,36.9,83,30.01,10.0,NNE,3.5,-,N/A,,Mostly Cloudy,20,2011-10-17 11:55:00
7:55 AM,46.9,37.0,68,29.99,10.0,East,3.5,-,N/A,,Overcast,80,2011-10-17 12:55:00
8:55 AM,49.8,36.7,61,29.99,10.0,East,4.6,-,N/A,,Overcast,80,2011-10-17 13:55:00
9:55 AM,52.3,34.2,50,29.99,10.0,East,6.9,-,N/A,,Overcast,100,2011-10-17 14:55:00
10:55 AM,54.9,31.5,41,29.99,10.0,East,6.9,-,N/A,,Overcast,80,2011-10-17 15:55:00
11:21 AM,55.4,30.2,38,29.99,4.0,NE,6.9,-,N/A,Rain-Thunderstorm,Light Thunderstorms and Rain,50,2011-10-17 16:21:00
11:55 AM,49.8,40.8,71,29.96,10.0,East,9.2,-,0.14,Rain-Thunderstorm,Light Thunderstorms and Rain,80,2011-10-17 16:55:00
12:02 PM,50.0,41.0,71,29.98,10.0,Variable,4.6,-,N/A,Rain-Thunderstorm,Light Rain,0,2011-10-17 17:02:00
12:41 PM,51.8,42.8,71,29.96,10.0,ENE,10.4,-,N/A,,Overcast,60,2011-10-17 17:41:00
12:55 PM,51.4,42.1,70,29.96,10.0,ENE,9.2,-,0.00,,Overcast,60,2011-10-17 17:55:00
1:55 PM,50.7,40.6,68,29.92,10.0,ENE,15.0,-,0.00,,Overcast,60,2011-10-17 18:55:00
2:55 PM,50.9,40.3,67,29.91,10.0,NE,12.7,-,N/A,,Overcast,50,2011-10-17 19:55:00
3:55 PM,50.7,38.8,64,29.92,10.0,NE,13.8,20.7,N/A,,Overcast,40,2011-10-17 20:55:00
4:55 PM,51.1,39.6,65,29.94,10.0,NE,11.5,-,N/A,,Overcast,40,2011-10-17 21:55:00
5:55 PM,50.4,39.7,67,29.96,10.0,NNE,8.1,-,N/A,,Overcast,30,2011-10-17 22:55:00
5:56 PM,50.0,41.0,71,29.96,10.0,NNE,11.5,-,N/A,,Light Drizzle,30,2011-10-17 22:56:00
6:55 PM,47.3,43.7,87,29.97,9.0,North,13.8,-,0.01,Rain-Thunderstorm,Light Thunderstorms and Rain,10,2011-10-17 23:55:00
7:29 PM,44.6,44.6,100,29.99,6.0,North,13.8,-,N/A,Rain-Thunderstorm,Light Rain Showers,10,2011-10-18 00:29:00
7:40 PM,44.6,44.6,100,30.00,10.0,North,10.4,-,N/A,,Light Drizzle,10,2011-10-18 00:40:00
7:55 PM,45.0,44.8,99,29.99,10.0,NNE,10.4,-,0.01,,Light Drizzle,20,2011-10-18 00:55:00
7:58 PM,44.6,44.6,100,29.99,10.0,NNE,13.8,-,N/A,,Light Drizzle,20,2011-10-18 00:58:00
8:17 PM,44.6,44.6,100,29.99,10.0,NNE,10.4,-,N/A,,Overcast,20,2011-10-18 01:17:00
8:55 PM,44.6,44.2,99,29.98,10.0,North,12.7,-,0.00,,Overcast,10,2011-10-18 01:55:00
9:55 PM,44.2,44.1,99,29.98,10.0,North,10.4,-,N/A,,Overcast,10,2011-10-18 02:55:00
10:55 PM,44.2,44.1,99,29.99,10.0,North,10.4,-,N/A,,Overcast,350,2011-10-18 03:55:00
11:29 PM,44.6,44.6,100,29.98,6.0,North,10.4,-,N/A,Rain,Light Rain,10,2011-10-18 04:29:00
11:55 PM,44.2,44.2,100,29.99,6.0,North,9.2,-,0.00,Rain,Light Rain,350,2011-10-18 04:55:00